Glendive, MT

2:08 PM MDT on July 27, 2016 (GMT -0600)
Dawson Community

Weather History for KGDV - July, 2014

Change the Weather History Date:

Thursday, July 3, 2014

  Actual Average Record
Temperature  
Mean Temperature 68 °F -  
Max Temperature 82 °F 79 °F 100 °F (2012)
Min Temperature 53 °F 53 °F 44 °F (1997)
Cooling Degree Days 2    
Growing Degree Days 18 (Base 50)    
Moisture  
Dew Point 53 °F    
Average Humidity 58    
Maximum Humidity 82    
Minimum Humidity 37    
Precipitation  
Precipitation 0.00 in - - ()
Sea Level Pressure  
Sea Level Pressure 30.06 in    
Wind  
Wind Speed 10 mph (ESE)    
Max Wind Speed 20 mph    
Max Gust Speed 24 mph    
Visibility 10 miles    
Events      
Averages and records for this station are not official NWS values.
T = Trace of Precipitation, MM = Missing Value Source: NWS Daily Summary

Daily Weather History Graph

Daily Weather History Graph

Search for Another Location

Airport or City:

Trip Planner

Search our weather history database for the weather conditions in past years. The results will help you decide how hot, cold, wet, or windy it might be!

Date:

Astronomy

Jul. 03, 2014 Rise Set
Actual Time 5:08 AM MDT 8:57 PM MDT
Civil Twilight 4:29 AM MDT 9:37 PM MDT
Nautical Twilight 3:35 AM MDT 10:31 PM MDT
Astronomical Twilight 2:16 AM MDT 11:49 PM MDT
Moon 11:36 AM MDT (7/3) 11:53 PM MDT (7/3)
Length of Visible Light 17h 08m
Length of Day
15h 48m
Waxing Crescent, 33% of the Moon is Illuminated
Jul 3
Waxing Crescent
Jul 5
First Quarter
Jul 12
Full
Jul 18
Last Quarter
Jul 26
New

Hourly Weather History & Observations

Time (MDT) Temp. Heat Index Dew Point Humidity Pressure Visibility Wind Dir Wind Speed Gust Speed Precip Events Conditions
12:15 AM 60.8 °F - 51.8 °F 72% 30.14 in 10.0 mi ENE 10.4 mph - N/A   Clear
12:35 AM 59.0 °F - 51.8 °F 77% 30.14 in 10.0 mi East 9.2 mph - N/A   Clear
12:55 AM 59.0 °F - 51.8 °F 77% 30.14 in 10.0 mi East 10.4 mph - N/A   Clear
1:15 AM 57.2 °F - 50.0 °F 77% 30.14 in 10.0 mi ENE 6.9 mph - N/A   Clear
1:35 AM 57.2 °F - 48.2 °F 72% 30.14 in 10.0 mi ENE 6.9 mph - N/A   Clear
1:55 AM 57.2 °F - 48.2 °F 72% 30.14 in 10.0 mi ENE 6.9 mph - N/A   Clear
2:15 AM 57.2 °F - 48.2 °F 72% 30.13 in 10.0 mi ENE 6.9 mph - N/A   Clear
2:35 AM 55.4 °F - 48.2 °F 77% 30.13 in 10.0 mi ENE 6.9 mph - N/A   Clear
2:55 AM 55.4 °F - 48.2 °F 77% 30.13 in 10.0 mi ENE 8.1 mph - N/A   Clear
3:15 AM 55.4 °F - 48.2 °F 77% 30.12 in 8.0 mi NE 6.9 mph - N/A   Clear
3:35 AM 55.4 °F - 48.2 °F 77% 30.12 in 10.0 mi ENE 6.9 mph - N/A   Clear
3:55 AM 53.6 °F - 46.4 °F 77% 30.11 in 10.0 mi ENE 6.9 mph - N/A   Clear
4:15 AM 53.6 °F - 46.4 °F 77% 30.12 in 10.0 mi ENE 5.8 mph - N/A   Clear
4:35 AM 53.6 °F - 46.4 °F 77% 30.12 in 10.0 mi ENE 8.1 mph - N/A   Clear
4:55 AM 53.6 °F - 46.4 °F 77% 30.12 in 10.0 mi ENE 9.2 mph - N/A   Clear
5:15 AM 53.6 °F - 46.4 °F 77% 30.11 in 10.0 mi ENE 9.2 mph - N/A   Clear
5:35 AM 53.6 °F - 46.4 °F 77% 30.11 in 10.0 mi NE 8.1 mph - N/A   Clear
5:55 AM 53.6 °F - 46.4 °F 77% 30.12 in 10.0 mi ENE 6.9 mph - N/A   Clear
6:15 AM 53.6 °F - 48.2 °F 82% 30.11 in 10.0 mi ENE 6.9 mph - N/A   Clear
6:35 AM 55.4 °F - 48.2 °F 77% 30.11 in 10.0 mi NE 8.1 mph - N/A   Clear
6:55 AM 57.2 °F - 48.2 °F 72% 30.11 in 10.0 mi ENE 6.9 mph - N/A   Clear
7:15 AM 57.2 °F - 48.2 °F 72% 30.11 in 10.0 mi ENE 8.1 mph - N/A   Clear
7:35 AM 59.0 °F - 50.0 °F 72% 30.10 in 10.0 mi ENE 6.9 mph - N/A   Clear
7:55 AM 60.8 °F - 50.0 °F 68% 30.10 in 10.0 mi ENE 9.2 mph - N/A   Clear
8:15 AM 62.6 °F - 51.8 °F 68% 30.10 in 10.0 mi ENE 8.1 mph - N/A   Clear
8:35 AM 62.6 °F - 51.8 °F 68% 30.10 in 10.0 mi ENE 9.2 mph - N/A   Clear
8:55 AM 64.4 °F - 51.8 °F 64% 30.10 in 10.0 mi East 6.9 mph - N/A   Clear
9:15 AM 66.2 °F - 53.6 °F 64% 30.10 in 10.0 mi East 4.6 mph - N/A   Clear
9:35 AM 68.0 °F - 53.6 °F 60% 30.10 in 10.0 mi East 5.8 mph - N/A   Clear
9:55 AM 69.8 °F - 53.6 °F 56% 30.09 in 10.0 mi East 6.9 mph - N/A   Clear
10:15 AM 71.6 °F - 53.6 °F 53% 30.09 in 10.0 mi ESE 9.2 mph - N/A   Clear
10:35 AM 75.2 °F - 53.6 °F 47% 30.08 in 10.0 mi SSE 9.2 mph - N/A   Clear
10:55 AM 78.8 °F - 53.6 °F 42% 30.08 in 10.0 mi SE 17.3 mph 21.9 mph N/A   Clear
11:15 AM 78.8 °F - 53.6 °F 42% 30.08 in 10.0 mi SSE 13.8 mph - N/A   Clear
11:35 AM 78.8 °F - 51.8 °F 39% 30.07 in 10.0 mi SSE 16.1 mph 21.9 mph N/A   Clear
11:55 AM 78.8 °F - 51.8 °F 39% 30.07 in 10.0 mi ESE 16.1 mph 19.6 mph N/A   Clear
12:15 PM 80.6 °F 80.3 °F 53.6 °F 39% 30.07 in 10.0 mi SE 12.7 mph 19.6 mph N/A   Clear
12:35 PM 80.6 °F 80.3 °F 53.6 °F 39% 30.06 in 10.0 mi ESE 17.3 mph - N/A   Clear
12:55 PM 80.6 °F - 51.8 °F 37% 30.06 in 10.0 mi SSE 12.7 mph 18.4 mph N/A   Clear
1:15 PM 82.4 °F 81.4 °F 53.6 °F 37% 30.05 in 10.0 mi SSE 12.7 mph 20.7 mph N/A   Clear
1:35 PM 80.6 °F 80.3 °F 53.6 °F 39% 30.04 in 10.0 mi ESE 15.0 mph 20.7 mph N/A   Clear
1:55 PM 80.6 °F 80.3 °F 53.6 °F 39% 30.04 in 10.0 mi ESE 16.1 mph 24.2 mph N/A   Clear
2:15 PM 82.4 °F 81.4 °F 53.6 °F 37% 30.04 in 10.0 mi SE 13.8 mph 21.9 mph N/A   Clear
2:35 PM 82.4 °F 81.7 °F 55.4 °F 39% 30.04 in 10.0 mi SSE 18.4 mph 24.2 mph N/A   Clear
2:55 PM 82.4 °F 81.7 °F 55.4 °F 39% 30.03 in 10.0 mi SSE 17.3 mph - N/A   Clear
3:15 PM 82.4 °F 81.7 °F 55.4 °F 39% 30.02 in 10.0 mi SE 15.0 mph - N/A   Clear
3:35 PM 82.4 °F 81.7 °F 55.4 °F 39% 30.02 in 10.0 mi SE 16.1 mph 20.7 mph N/A   Clear
3:55 PM 82.4 °F 81.7 °F 55.4 °F 39% 30.01 in 10.0 mi ESE 16.1 mph 19.6 mph N/A   Clear
4:15 PM 82.4 °F 81.7 °F 55.4 °F 39% 30.00 in 10.0 mi ESE 13.8 mph - N/A   Clear
4:35 PM 82.4 °F 81.7 °F 55.4 °F 39% 30.00 in 10.0 mi ESE 17.3 mph 24.2 mph N/A   Clear
4:55 PM 82.4 °F 82.0 °F 57.2 °F 42% 29.99 in 10.0 mi SE 17.3 mph 23.0 mph N/A   Clear
5:15 PM 82.4 °F 81.7 °F 55.4 °F 39% 29.99 in 10.0 mi ESE 13.8 mph - N/A   Clear
5:35 PM 80.6 °F 80.8 °F 57.2 °F 45% 29.99 in 10.0 mi ESE 18.4 mph 21.9 mph N/A   Clear
5:55 PM 80.6 °F 80.8 °F 57.2 °F 45% 29.98 in 10.0 mi SE 13.8 mph 21.9 mph N/A   Clear
6:15 PM 80.6 °F 80.8 °F 57.2 °F 45% 29.99 in 10.0 mi SE 15.0 mph - N/A   Clear
6:35 PM 80.6 °F 80.8 °F 57.2 °F 45% 29.98 in 10.0 mi ESE 19.6 mph 24.2 mph N/A   Clear
6:55 PM 78.8 °F - 57.2 °F 47% 29.97 in 10.0 mi ESE 17.3 mph - N/A   Clear
7:15 PM 78.8 °F - 57.2 °F 47% 29.97 in 10.0 mi SE 16.1 mph 19.6 mph N/A   Clear
7:35 PM 77.0 °F - 55.4 °F 47% 29.98 in 10.0 mi SE 17.3 mph 21.9 mph N/A   Clear
7:55 PM 75.2 °F - 57.2 °F 53% 29.98 in 10.0 mi ESE 13.8 mph - N/A   Clear
8:15 PM 75.2 °F - 55.4 °F 50% 29.99 in 10.0 mi ESE 15.0 mph - N/A   Clear
8:35 PM 73.4 °F - 55.4 °F 53% 29.99 in 10.0 mi SE 15.0 mph 18.4 mph N/A   Clear
8:55 PM 73.4 °F - 55.4 °F 53% 29.99 in 10.0 mi ESE 12.7 mph 16.1 mph N/A   Clear
9:15 PM 73.4 °F - 55.4 °F 53% 29.99 in 10.0 mi SE 15.0 mph - N/A   Clear
9:35 PM 71.6 °F - 57.2 °F 60% 29.99 in 10.0 mi SE 12.7 mph - N/A   Clear
9:55 PM 71.6 °F - 57.2 °F 60% 30.00 in 10.0 mi SE 11.5 mph - N/A   Clear
10:15 PM 71.6 °F - 57.2 °F 60% 29.99 in 10.0 mi ESE 12.7 mph - N/A   Clear
10:35 PM 69.8 °F - 57.2 °F 64% 29.99 in 10.0 mi SE 13.8 mph 18.4 mph N/A   Clear
10:55 PM 69.8 °F - 57.2 °F 64% 29.99 in 10.0 mi SE 10.4 mph - N/A   Clear
11:15 PM 69.8 °F - 57.2 °F 64% 29.98 in 10.0 mi SE 9.2 mph - N/A   Clear
11:35 PM 69.8 °F - 57.2 °F 64% 29.98 in 10.0 mi SSE 8.1 mph - N/A   Clear
11:55 PM 68.0 °F - 57.2 °F 68% 29.98 in 10.0 mi SSE 5.8 mph - N/A   Clear